Location: Craonne
(49.4394°N, 3.7871°E)
Time: 20:01:53
(UTC+00:00)

Daily predictions for brighter satellites

Satellite Brightness Start Highest point End
(mag) Time Altitude Azimuth Time Altitude Azimuth Time Altitude Azimuth
ATLAS 3B R/B 3.2 19:53:23 10° NW 20:01:15 77° NE 20:09:04 10° SE
BREEZE-M DEB (TANK) 4.2 19:59:20 10° SSW 20:02:35 33° SE 20:09:31 10° E
Aureole 3 Rocket 3.8 20:02:50 10° N 20:06:05 32° ENE 20:10:10 10° SE
Cosmos 1980 3.9 20:00:54 10° SSW 20:06:33 81° WNW 20:12:15 10° NNE
Cosmos 923 Rocket 4.3 20:02:22 10° S 20:07:29 51° ESE 20:12:39 10° NNE
USA 306 3.9 20:04:09 10° WNW 20:07:39 41° N 20:11:21 10° ENE
SPOT 5 2.9 20:03:37 10° SSE 20:08:13 60° ENE 20:12:38 10° N
Cosmos 1464 Rocket 4.1 20:05:46 10° N 20:12:08 88° W 20:18:23 10° S
Meteor 2-2 Rocket 4.4 20:06:43 10° S 20:12:43 76° E 20:18:45 10° NNE
Okean O Rocket 2.9 20:12:48 10° S 20:16:59 41° W 20:21:13 10° NNW
Terra 2.4 20:14:22 10° SE 20:18:47 43° ENE 20:23:16 10° N
USA 234 4.3 20:12:40 10° ENE 20:18:52 47° N 20:25:03 10° WNW
Cosmos 1656 Rocket 4.0 20:16:44 10° NNW 20:22:05 53° NE 20:27:23 10° SE
Cosmos 1371 Rocket 4.2 20:17:25 10° NNW 20:22:45 63° ENE 20:28:03 10° SE
ERS-1 Rocket 3.2 20:19:23 10° SSE 20:24:17 58° ENE 20:29:14 10° N
MOS 1 4.5 20:19:20 10° SSE 20:25:01 78° WSW 20:30:44 10° NNW
ATLAS 2AS CENTAUR R/B 3.1 20:18:17 10° SW 20:25:41 79° NW 20:32:49 10° NE
SPOT 3 Rocket 4.1 20:24:11 10° SE 20:29:03 45° ENE 20:33:56 10° N
USA 59 Rocket 2.4 20:28:18 10° N 20:29:46 12° NNE 20:31:21 10° NE
Cosmos 1782 3.4 20:26:14 10° SSW 20:29:58 56° WNW 20:33:45 10° N
IRS-1A Rocket 4.3 20:26:07 10° SSE 20:31:47 84° ENE 20:37:23 10° NNW
Meteor 1-26 Rocket 4.4 20:27:31 10° S 20:33:31 68° E 20:39:31 10° NNE
USA 281 3.6 20:27:35 10° SE 20:33:57 55° NE 20:40:22 10° NNW
Cosmos 1943 Rocket 3.3 20:28:55 10° NW 20:34:11 41° WSW 20:39:24 10° S
Cosmos 1420 Rocket 4.1 20:29:57 10° NNW 20:35:18 89° ENE 20:40:30 11° SSE
Cosmos 1743 3.0 20:35:00 10° N 20:38:30 47° ENE 20:41:25 14° SSE
Cosmos 2278 Rocket 4.2 20:34:19 10° NW 20:38:43 24° WSW 20:43:05 10° SSW
ISS -3.2 20:36:19 10° WNW 20:39:37 58° N 20:42:55 10° E
NOSS 3-1 (A) 4.3 20:32:34 10° NW 20:39:48 69° SW 20:48:11 11° SSE
Cosmos 972 4.4 20:35:31 10° SSW 20:40:25 85° WNW 20:45:25 10° NNE
USA 245 1.8 20:42:39 17° SSE 20:44:16 76° ENE 20:46:30 10° N
SL-24 R/B - RUBIN 2 4.5 20:40:02 10° SSW 20:46:08 69° SE 20:52:46 10° NE
Cosmos 2297 3.8 20:40:39 10° NNW 20:46:26 80° ENE 20:51:24 14° SSE
Cosmos 1634 Rocket 4.1 20:40:39 10° N 20:46:56 65° ENE 20:52:38 12° SSE
Cosmos 2112 Rocket 4.0 20:44:34 10° SSW 20:49:51 72° ESE 20:55:09 10° NNE
USA 290 3.2 20:47:41 10° NW 20:50:46 41° WSW 20:53:34 12° S
Cosmos 1766 Rocket 3.6 20:47:12 10° N 20:51:39 77° E 20:55:32 14° SSE
Okean-O 4.1 20:47:50 10° SSW 20:51:51 34° W 20:55:54 10° NNW
USA 229 DEB 4.1 20:47:24 10° NW 20:54:45 75° NE 21:01:46 14° SE
USA 229 4.1 20:47:31 10° NW 20:54:51 74° NE 21:01:53 14° SE
Cosmos 2034 Rocket 4.4 20:49:45 10° NNW 20:55:52 63° W 21:02:01 10° S
Cosmos 1726 2.9 20:54:14 10° N 20:57:02 28° ENE 20:58:35 19° ESE
Spot 2 Rocket 3.5 20:54:06 13° SSE 20:58:36 86° ENE 21:03:40 10° NNW
Cosmos 1680 Rocket 3.6 20:54:49 10° SSW 21:00:06 83° WNW 21:05:25 10° NNE
Meteor 2-6 Rocket 4.3 20:58:41 10° S 21:04:14 62° E 21:09:40 10° NNE
USA 32 4.0 21:01:27 10° S 21:06:40 83° E 21:11:55 10° N
Tsikada Rocket 4.1 21:02:57 10° S 21:09:07 84° W 21:15:25 10° N
Sich 1 4.3 21:09:41 10° N 21:13:29 28° ENE 21:15:51 18° ESE
Helios 1B 4.5 21:09:21 10° NNE 21:13:41 83° ESE 21:17:56 10° SSW
MetOp-A 3.9 21:11:24 20° SE 21:14:21 59° ENE 21:19:02 10° N
USA 276 1.3 21:12:36 10° W 21:14:48 58° SSW 21:15:14 45° SE
SL-16 R/B 2.3 21:09:52 10° SSW 21:15:32 79° WNW 21:21:16 10° NNE
Cosmos 2263 4.2 21:10:13 10° NNW 21:15:56 78° ENE 21:20:00 20° SE
MOS 1 Rocket 3.5 21:13:56 17° SSE 21:17:52 86° WSW 21:23:10 10° NNW
Cosmos 2056 Rocket 4.2 21:13:54 10° NNW 21:19:07 50° WSW 21:23:28 14° S
Lacrosse 5 3.0 21:15:27 10° WNW 21:19:59 33° SW 21:23:08 17° S
Cosmos 1536 3.2 21:16:31 10° N 21:20:17 47° ENE 21:22:15 24° SE
Ariane Rocket 3.3 21:16:49 15° S 21:21:04 64° WSW 21:26:08 10° NNW
Lacrosse 5 rocket 1.9 21:17:16 10° WSW 21:21:31 63° NNW 21:25:42 10° NE
Cosmos 1452 Rocket 3.7 21:18:09 10° NNW 21:23:22 62° ENE 21:26:45 22° SE
Cosmos 1408 Rocket 3.9 21:19:18 10° N 21:23:41 55° ENE 21:26:12 24° SE
Cosmos 44 4.0 21:19:15 10° NW 21:23:50 42° WSW 21:26:45 19° S
Spot 1 3.9 21:20:42 10° NNE 21:24:45 66° ESE 21:27:36 19° S
Meteor 1-27 Rocket 4.4 21:22:18 20° SE 21:25:18 35° E 21:30:16 10° NNE
Okean 1 4.0 21:25:59 25° SE 21:27:25 34° E 21:30:57 10° NNE
Cosmos 1340 4.1 21:24:53 10° NNE 21:27:37 22° ENE 21:28:49 18° E
Cosmos 2221 3.4 21:23:46 10° SSW 21:27:56 47° WNW 21:32:09 10° N
Cosmos 2369 Rocket 2.3 21:23:00 10° NNW 21:28:35 68° WSW 21:32:23 21° SSE
Cosmos 2084 3.9 21:28:38 10° NW 21:32:11 40° SW 21:33:53 25° S
FALCON 9 R/B 4.4 21:29:11 10° SW 21:35:34 34° S 21:54:03 10° ESE
USA 306 3.3 21:38:06 10° WNW 21:41:52 53° NNE 21:45:08 14° E
Cosmos 921 Rocket 3.6 21:38:36 10° SSW 21:43:01 60° WNW 21:47:29 10° NNE
Okean 3 Rocket 4.1 21:41:00 10° NNW 21:45:19 55° W 21:48:05 21° SSW
GEOS 3 Rocket 3.8 21:41:10 10° NE 21:46:22 74° NW 21:51:28 10° SW
ATLAS 3B R/B 4.1 21:44:45 10° NW 21:51:31 33° WSW 21:57:03 14° SSW
Landsat 5 3.5 21:48:40 10° N 21:52:26 68° WNW 21:54:55 20° SSW
SL-8 R/B 4.0 21:50:01 10° SW 21:54:27 40° SSE 21:58:56 10° E
Cosmos 1500 Rocket 3.4 21:51:42 10° N 21:56:04 85° E 21:57:58 33° SSE
Terra 3.5 21:52:39 10° SSW 21:56:33 26° W 22:00:31 10° NW
Cosmos 1943 3.1 21:53:56 14° SSW 21:58:52 78° ESE 22:04:32 10° NNE
Cosmos 1733 3.0 21:55:40 10° N 21:59:11 66° E 22:00:07 44° SE
ALOS 2 4.3 21:58:50 16° E 22:01:00 23° ENE 22:04:27 10° N
USA 234 3.9 21:54:56 10° E 22:01:17 54° NNE 22:07:37 10° WNW
Cosmos 1048 Rocket 3.9 21:59:00 15° SSW 22:03:18 85° WNW 22:08:28 10° NNE
H-2A R/B 3.2 22:02:30 28° ESE 22:04:06 41° ENE 22:08:03 10° N
Cosmos 1805 Rocket 3.5 22:00:35 10° N 22:04:59 87° E 22:06:48 35° S
Cosmos 1842 Rocket 4.5 22:01:41 13° SSW 22:05:23 46° WNW 22:09:41 10° N
Cosmos 494 Rocket 4.4 22:01:31 10° SW 22:06:33 61° WNW 22:11:38 10° NNE
Meteor 1-10 Rocket 4.4 22:02:23 17° SSW 22:06:57 74° WNW 22:12:38 10° N
Lacrosse 4 Rocket 3.5 22:04:20 10° N 22:07:25 20° NE 22:10:32 10° E
Cosmos 1151 Rocket 3.3 22:08:37 36° SSE 22:10:02 53° E 22:14:17 10° NNE
Meteor 2-9 Rocket 4.3 22:05:53 10° NNW 22:11:42 78° W 22:14:55 28° S
Cosmos 1666 Rocket 4.4 22:08:50 10° N 22:12:55 38° ENE 22:14:23 29° ESE
Cosmos 1302 Rocket 4.1 22:09:35 10° NNW 22:14:47 70° ENE 22:17:13 32° SE
Meteor 1-11 Rocket 4.1 22:09:24 10° NNW 22:14:54 58° W 22:18:13 24° SSW
ISS -3.9 22:13:02 10° WNW 22:16:20 64° SSW 22:16:32 62° S
Cosmos 1633 Rocket 4.0 22:12:30 10° N 22:16:35 35° ENE 22:18:08 27° ESE
Meteor 2-10 4.2 22:11:15 10° NNW 22:16:53 73° W 22:19:41 30° S
ARIANE 5 R/B 2.5 22:16:04 38° SSE 22:17:43 85° ENE 22:22:03 10° NNW
Meteor 1-19 Rocket 4.3 22:14:06 25° S 22:17:46 87° E 22:23:36 10° NNE
Cosmos 1340 Rocket 2.7 22:17:22 43° S 22:18:34 73° E 22:22:34 10° NNE
USA 281 4.2 22:14:24 18° SSW 22:18:39 37° WSW 22:24:43 10° NW
USA 59 Rocket 0.7 22:16:35 10° NNW 22:20:10 47° NE 22:22:59 21° ESE
Cosmos 1331 Rocket 4.4 22:15:44 10° NNW 22:20:51 53° WSW 22:23:13 30° SSW
NOSS 2-1 (E) 4.2 22:17:26 10° NNW 22:21:02 47° NE 22:23:49 22° ESE
MINOTAUR 4 R/B 3.4 22:19:15 10° NNE 22:22:15 82° ESE 22:22:21 79° SE
BREEZE-M DEB (TANK) 4.4 22:19:01 10° WSW 22:23:12 86° SSE 22:42:49 10° E
IRIDIUM 103 4.3 22:19:02 10° N 22:24:17 72° E 22:26:30 35° SSE
H-2A R/B 4.2 22:23:05 10° ENE 22:25:17 13° E 22:25:53 13° E
CZ-2C R/B 3.6 22:20:59 10° NNE 22:25:34 83° ESE 22:27:22 36° S
Cosmos 1726 4.0 22:27:59 10° NW 22:30:02 16° W 22:31:07 14° WSW
Cosmos 2195 Rocket 4.5 22:27:33 31° S 22:30:34 69° E 22:36:38 10° NNE
NOSS 2-1 (D) 3.8 22:29:01 10° NW 22:32:41 60° NE 22:34:55 28° ESE
Nadezhda 4 Rocket 4.1 22:30:39 24° SSW 22:34:31 75° W 22:40:47 10° N
Molniya-1 4.4 22:35:27 24° SW 22:38:07 82° SE 22:49:40 10° NE
Cosmos 1805 3.0 22:35:46 10° NNW 22:39:29 79° W 22:40:09 57° S
IRIDIUM 106 4.3 22:37:21 10° N 22:42:36 82° W 22:44:46 37° S
Sich 1 4.3 22:47:03 10° NNW 22:50:56 32° W 22:52:35 24° SW
Spot 2 4.2 22:50:57 43° SSE 22:52:25 79° ENE 22:57:14 10° NNW
Cosmos 1975 2.8 22:52:29 10° NNW 22:56:25 67° W 22:57:09 53° SSW
Lacrosse 5 rocket 3.4 22:56:41 10° WNW 23:00:27 30° N 23:04:09 10° NE
Cosmos 1340 3.9 22:58:59 10° NW 23:01:52 26° W 23:02:14 25° WSW
Cosmos 1603 4.2 22:57:29 16° SW 23:02:00 59° WNW 23:07:40 10° NNE
Cosmos 1626 1.7 23:04:41 79° ENE 23:04:41 79° ENE 23:07:49 10° NNE
Cosmos 1269 Rocket 4.5 23:04:35 37° SE 23:05:53 45° ESE 23:10:53 10° NE
USA 267 3.3 23:00:41 10° ENE 23:07:07 57° SE 23:10:42 27° SSW
Cosmos 1674 3.6 23:07:50 31° E 23:07:50 31° E 23:10:51 10° NNE
NOSS 2-1 (C) 3.4 23:04:06 10° NW 23:07:55 76° SW 23:09:08 48° SSE
Cosmos 2369 Rocket 4.5 23:10:01 10° W 23:11:30 11° W 23:12:58 10° WSW
PSLV R/B 4.2 23:08:42 10° NNE 23:13:07 44° E 23:13:59 39° SE
Cosmos 2026 Rocket 4.2 23:12:23 30° SSW 23:15:40 70° WNW 23:21:58 10° N
USA 306 3.0 23:11:54 10° WNW 23:15:15 48° WSW 23:15:15 48° WSW
Cosmos 1833 Rocket 3.6 23:17:10 28° SE 23:18:23 31° ESE 23:23:14 10° NE
S3M 4.4 23:18:58 10° N 23:25:14 56° ENE 23:28:27 29° SE
NOSS 3-3 (C) 4.1 23:26:06 39° SSE 23:27:30 46° ESE 23:33:30 10° NE
SL-24 R/B 4.2 23:25:57 10° NNE 23:30:22 69° ESE 23:31:32 48° SSE
Cosmos 220 Rocket 4.1 23:30:05 46° SW 23:31:17 73° WNW 23:35:38 10° NNE
Cosmos 1515 Rocket 3.5 23:31:37 55° SSE 23:32:29 76° E 23:36:49 10° NNE
Cosmos 1328 Rocket 4.1 23:33:11 37° SW 23:34:27 50° WNW 23:38:42 10° N
GP-B 4.0 23:30:39 10° NNE 23:34:46 37° E 23:35:54 31° ESE
SL-8 R/B 3.5 23:31:51 10° WSW 23:36:37 77° S 23:41:24 10° E
ALOS 2 3.1 23:36:13 41° SW 23:37:05 46° W 23:41:19 10° NNW
Cosmos 1553 Rocket 3.9 23:31:07 10° NNW 23:37:11 73° W 23:39:39 38° S
H-2A R/B 4.1 23:38:30 21° WSW 23:39:13 22° W 23:42:32 10° NW
Cosmos 1470 Rocket 3.9 23:36:29 10° NNW 23:40:51 54° W 23:41:47 45° SW
Cosmos 1869 Rocket 4.1 23:37:29 10° N 23:41:44 50° ENE 23:42:58 38° SE
USA 234 3.2 23:38:50 17° SE 23:44:08 80° SW 23:50:44 10° WNW
Lacrosse 4 Rocket 1.2 23:42:04 10° NW 23:46:06 66° WSW 23:46:29 62° SSW
Cosmos 1633 Rocket 4.4 23:50:29 10° NNW 23:54:09 26° W 23:55:08 24° WSW
